Zurück zum Katalog

NOAA 21

AktivWetterSSO
NORAD 54234·PAYLOAD·🇺🇸 United States

Gestartet Nov 10, 2022 von Vandenberg Space Force Base

Loading…

Nächste Überflüge (nächste 24 Stunden)

TLE

AktuellSource: Space-Track

Epoche: Sep 14, 2026, 13:11 UTC

1 54234U 22150A   26257.54990321  .00000029  00000-0  34575-4 0  9992
2 54234  98.7097 194.8479 0001081 339.0174  21.0958 14.19549193199223

Verfolge NOAA 21 in Echtzeit mit AllMySat

Download on the App Store